Time,TemperatureF,DewpointF,PressureIn,WindDirection,WindDirectionDegrees,WindSpeedMPH,WindSpeedGustMPH,Humidity,HourlyPrecipIn,Conditions,Clouds,dailyrainin,SoftwareType,DateUTC
2013-03-26 00:03:00,32.0,26.0,29.99,NW,315,0.0,0.0,79,0.00,,,0.00,,2013-03-26 04:03:00,
2013-03-26 00:12:00,32.0,26.0,29.99,NW,315,0.0,0.0,79,0.00,,,0.00,,2013-03-26 04:12:00,
2013-03-26 00:23:00,32.0,26.0,30.00,NW,315,0.0,0.0,79,0.00,,,0.00,,2013-03-26 04:23:00,
2013-03-26 00:33:00,32.0,26.0,30.00,NW,315,0.0,0.0,79,0.00,,,0.00,,2013-03-26 04:33:00,
2013-03-26 00:43:00,32.0,26.0,30.00,NW,315,0.0,0.0,79,0.00,,,0.00,,2013-03-26 04:43:00,
2013-03-26 00:53:00,32.0,26.0,30.00,NW,315,0.0,0.0,79,0.00,,,0.00,,2013-03-26 04:53:00,
2013-03-26 01:02:00,32.0,26.0,30.00,NW,315,0.0,0.0,79,0.00,,,0.00,,2013-03-26 05:02:00,
2013-03-26 01:12:00,32.0,26.0,30.00,NW,315,0.0,0.0,79,0.00,,,0.00,,2013-03-26 05:12:00,
2013-03-26 01:22:00,32.0,27.0,30.00,NW,315,0.0,0.0,80,0.00,,,0.00,,2013-03-26 05:22:00,
2013-03-26 01:32:00,32.0,27.0,30.00,NW,315,0.0,0.0,80,0.00,,,0.00,,2013-03-26 05:32:00,
2013-03-26 01:42:00,32.0,27.0,30.00,NW,315,0.0,0.0,80,0.00,,,0.00,,2013-03-26 05:42:00,
2013-03-26 01:52:00,32.0,27.0,30.01,NW,315,0.0,0.0,80,0.00,,,0.00,,2013-03-26 05:52:00,
2013-03-26 02:02:00,32.0,27.0,30.01,NW,315,0.0,1.0,80,0.00,,,0.00,,2013-03-26 06:02:00,
2013-03-26 02:12:00,32.0,27.0,30.01,NW,315,0.0,1.0,80,0.00,,,0.00,,2013-03-26 06:12:00,
2013-03-26 02:22:00,32.0,27.0,30.02,NW,315,2.0,2.0,80,0.00,,,0.00,,2013-03-26 06:22:00,
2013-03-26 02:32:00,32.0,27.0,30.02,NW,315,0.0,2.0,80,0.00,,,0.00,,2013-03-26 06:32:00,
2013-03-26 02:42:00,32.0,27.0,30.02,NW,315,0.0,2.0,80,0.00,,,0.00,,2013-03-26 06:42:00,
2013-03-26 02:52:00,32.0,27.0,30.02,NW,315,0.0,0.0,80,0.00,,,0.00,,2013-03-26 06:52:00,
2013-03-26 03:02:00,32.0,27.0,30.03,NW,315,0.0,0.0,80,0.00,,,0.00,,2013-03-26 07:02:00,
2013-03-26 03:12:00,32.0,27.0,30.03,NW,315,0.0,0.0,80,0.00,,,0.00,,2013-03-26 07:12:00,
2013-03-26 03:22:00,32.0,27.0,30.03,NW,315,0.0,0.0,80,0.00,,,0.00,,2013-03-26 07:22:00,
2013-03-26 03:33:00,32.0,27.0,30.03,NW,315,0.0,0.0,80,0.00,,,0.00,,2013-03-26 07:33:00,
2013-03-26 03:42:00,32.0,27.0,30.03,NW,315,0.0,0.0,80,0.00,,,0.00,,2013-03-26 07:42:00,
2013-03-26 03:52:00,32.0,27.0,30.03,NW,315,1.0,1.0,80,0.00,,,0.00,,2013-03-26 07:52:00,
2013-03-26 04:02:00,31.0,26.0,30.03,NW,315,0.0,1.0,81,0.00,,,0.00,,2013-03-26 08:02:00,
2013-03-26 04:12:00,31.0,26.0,30.03,NW,315,0.0,1.0,81,0.00,,,0.00,,2013-03-26 08:12:00,
2013-03-26 04:22:00,31.0,26.0,30.03,NW,315,0.0,0.0,81,0.00,,,0.00,,2013-03-26 08:22:00,
2013-03-26 04:32:00,31.0,26.0,30.03,NW,315,0.0,0.0,81,0.00,,,0.00,,2013-03-26 08:32:00,
2013-03-26 04:42:00,31.0,26.0,30.03,NW,315,0.0,0.0,81,0.00,,,0.00,,2013-03-26 08:42:00,
2013-03-26 04:52:00,31.0,26.0,30.03,NW,315,0.0,0.0,81,0.00,,,0.00,,2013-03-26 08:52:00,
2013-03-26 05:02:00,31.0,26.0,30.04,NW,315,0.0,0.0,81,0.00,,,0.00,,2013-03-26 09:02:00,
2013-03-26 05:12:00,31.0,26.0,30.04,NW,315,0.0,0.0,81,0.00,,,0.00,,2013-03-26 09:12:00,
2013-03-26 05:22:00,31.0,26.0,30.03,NW,315,0.0,0.0,81,0.00,,,0.00,,2013-03-26 09:22:00,
2013-03-26 05:33:00,31.0,26.0,30.04,NW,315,0.0,0.0,81,0.00,,,0.00,,2013-03-26 09:33:00,
2013-03-26 05:43:00,31.0,26.0,30.04,NW,315,0.0,0.0,81,0.00,,,0.00,,2013-03-26 09:43:00,
2013-03-26 05:52:00,31.0,26.0,30.04,NW,315,0.0,0.0,82,0.00,,,0.00,,2013-03-26 09:52:00,
2013-03-26 06:03:00,31.0,26.0,30.04,NW,315,1.0,1.0,82,0.00,,,0.00,,2013-03-26 10:03:00,
2013-03-26 06:12:00,31.0,26.0,30.04,NW,315,1.0,1.0,82,0.00,,,0.00,,2013-03-26 10:12:00,
2013-03-26 06:22:00,31.0,26.0,30.05,NW,315,0.0,1.0,82,0.00,,,0.00,,2013-03-26 10:22:00,
2013-03-26 06:32:00,31.0,26.0,30.05,NW,315,0.0,1.0,82,0.00,,,0.00,,2013-03-26 10:32:00,
2013-03-26 06:42:00,31.0,26.0,30.05,NW,315,0.0,1.0,82,0.00,,,0.00,,2013-03-26 10:42:00,
2013-03-26 06:52:00,31.0,26.0,30.05,NW,315,0.0,0.0,82,0.00,,,0.00,,2013-03-26 10:52:00,
2013-03-26 07:03:00,31.0,26.0,30.05,NW,315,0.0,0.0,82,0.00,,,0.00,,2013-03-26 11:03:00,
2013-03-26 07:12:00,31.0,26.0,30.05,NW,315,0.0,0.0,82,0.00,,,0.00,,2013-03-26 11:12:00,
2013-03-26 07:22:00,31.0,26.0,30.06,NW,315,0.0,0.0,83,0.00,,,0.00,,2013-03-26 11:22:00,
2013-03-26 07:32:00,31.0,26.0,30.06,NW,315,0.0,2.0,83,0.00,,,0.00,,2013-03-26 11:32:00,
2013-03-26 07:42:00,31.0,26.0,30.06,NW,315,0.0,2.0,83,0.00,,,0.00,,2013-03-26 11:42:00,
2013-03-26 07:52:00,31.0,26.0,30.08,NW,315,0.0,3.0,83,0.00,,,0.00,,2013-03-26 11:52:00,
2013-03-26 08:03:00,31.0,26.0,30.08,NW,315,0.0,3.0,83,0.00,,,0.00,,2013-03-26 12:03:00,
2013-03-26 08:12:00,31.0,26.0,30.08,NW,315,0.0,0.0,83,0.00,,,0.00,,2013-03-26 12:12:00,
2013-03-26 08:22:00,31.0,26.0,30.09,NW,315,2.0,2.0,83,0.00,,,0.00,,2013-03-26 12:22:00,
2013-03-26 08:32:00,31.0,27.0,30.10,NW,315,1.0,2.0,84,0.00,,,0.00,,2013-03-26 12:32:00,
2013-03-26 08:42:00,31.0,27.0,30.10,NW,315,1.0,2.0,84,0.00,,,0.00,,2013-03-26 12:42:00,
2013-03-26 08:52:00,31.0,27.0,30.10,NW,315,2.0,2.0,84,0.00,,,0.00,,2013-03-26 12:52:00,
2013-03-26 09:03:00,31.0,27.0,30.11,NW,315,0.0,2.0,84,0.00,,,0.00,,2013-03-26 13:03:00,
2013-03-26 09:12:00,31.0,27.0,30.11,NW,315,0.0,2.0,84,0.00,,,0.00,,2013-03-26 13:12:00,
2013-03-26 09:22:00,32.0,28.0,30.11,NW,315,0.0,0.0,84,0.00,,,0.00,,2013-03-26 13:22:00,
2013-03-26 09:32:00,32.0,28.0,30.11,NW,315,0.0,0.0,84,0.00,,,0.00,,2013-03-26 13:32:00,
2013-03-26 09:42:00,32.0,28.0,30.11,NW,315,0.0,0.0,84,0.00,,,0.00,,2013-03-26 13:42:00,
2013-03-26 09:52:00,32.0,28.0,30.12,NNW,337,4.0,4.0,84,0.00,,,0.00,,2013-03-26 13:52:00,
2013-03-26 10:02:00,33.0,29.0,30.12,WNW,292,1.0,4.0,84,0.00,,,0.00,,2013-03-26 14:02:00,
2013-03-26 10:12:00,33.0,29.0,30.12,WNW,292,1.0,4.0,84,0.00,,,0.00,,2013-03-26 14:12:00,
2013-03-26 10:22:00,33.0,29.0,30.12,NW,315,1.0,3.0,84,0.00,,,0.00,,2013-03-26 14:22:00,
2013-03-26 10:32:00,34.0,30.0,30.13,NW,315,4.0,4.0,85,0.00,,,0.00,,2013-03-26 14:32:00,
2013-03-26 10:42:00,34.0,30.0,30.13,NW,315,4.0,4.0,85,0.00,,,0.00,,2013-03-26 14:42:00,
2013-03-26 10:53:00,35.0,30.0,30.13,WNW,292,9.0,9.0,83,0.00,,,0.00,,2013-03-26 14:53:00,
2013-03-26 11:02:00,35.0,30.0,30.13,WNW,292,4.0,9.0,83,0.00,,,0.00,,2013-03-26 15:02:00,
2013-03-26 11:12:00,35.0,30.0,30.13,WNW,292,4.0,9.0,83,0.00,,,0.00,,2013-03-26 15:12:00,
2013-03-26 11:22:00,36.0,31.0,30.14,NNW,337,0.0,7.0,82,0.00,,,0.00,,2013-03-26 15:22:00,
2013-03-26 11:33:00,36.0,31.0,30.14,NW,315,1.0,3.0,81,0.00,,,0.00,,2013-03-26 15:33:00,
2013-03-26 11:43:00,36.0,31.0,30.14,NW,315,1.0,3.0,81,0.00,,,0.00,,2013-03-26 15:43:00,
2013-03-26 11:53:00,35.0,30.0,30.14,WNW,292,7.0,7.0,81,0.00,,,0.00,,2013-03-26 15:53:00,
2013-03-26 12:03:00,34.0,28.0,30.15,NW,315,1.0,7.0,80,0.00,,,0.00,,2013-03-26 16:03:00,
2013-03-26 12:13:00,34.0,28.0,30.15,NW,315,1.0,7.0,80,0.00,,,0.00,,2013-03-26 16:13:00,
2013-03-26 12:22:00,34.0,28.0,30.15,North,0,3.0,3.0,80,0.00,,,0.00,,2013-03-26 16:22:00,
2013-03-26 12:32:00,34.0,28.0,30.15,NW,315,3.0,6.0,79,0.00,,,0.00,,2013-03-26 16:32:00,
2013-03-26 12:42:00,34.0,28.0,30.15,NW,315,3.0,6.0,79,0.00,,,0.00,,2013-03-26 16:42:00,
2013-03-26 12:54:00,34.0,28.0,30.15,NNW,337,2.0,2.0,78,0.00,,,0.00,,2013-03-26 16:54:00,
2013-03-26 13:02:00,35.0,28.0,30.14,North,0,2.0,2.0,76,0.00,,,0.00,,2013-03-26 17:02:00,
2013-03-26 13:12:00,35.0,28.0,30.14,North,0,2.0,2.0,76,0.00,,,0.00,,2013-03-26 17:12:00,
2013-03-26 13:23:00,34.0,27.0,30.15,WNW,292,1.0,1.0,75,0.00,,,0.00,,2013-03-26 17:23:00,
2013-03-26 13:32:00,34.0,27.0,30.15,WNW,292,2.0,2.0,74,0.00,,,0.00,,2013-03-26 17:32:00,
2013-03-26 13:42:00,34.0,27.0,30.15,WNW,292,2.0,2.0,74,0.00,,,0.00,,2013-03-26 17:42:00,
2013-03-26 13:53:00,33.0,26.0,30.15,NW,308,2.0,6.0,74,0.00,,,0.00,,2013-03-26 17:53:00,
2013-03-26 14:02:00,33.0,25.0,30.15,NW,315,3.0,3.0,73,0.00,,,0.00,,2013-03-26 18:02:00,
2013-03-26 14:12:00,33.0,25.0,30.15,NW,315,3.0,3.0,73,0.00,,,0.00,,2013-03-26 18:12:00,
2013-03-26 14:23:00,34.0,26.0,30.16,WNW,292,1.0,6.0,72,0.00,,,0.00,,2013-03-26 18:23:00,
2013-03-26 14:34:00,33.0,25.0,30.16,WNW,294,3.0,3.0,72,0.00,,,0.00,,2013-03-26 18:34:00,
2013-03-26 14:42:00,33.0,25.0,30.16,WNW,294,3.0,3.0,72,0.00,,,0.00,,2013-03-26 18:42:00,
2013-03-26 14:53:00,33.0,25.0,30.16,NNW,337,0.0,0.0,72,0.00,,,0.00,,2013-03-26 18:53:00,
2013-03-26 15:03:00,33.0,25.0,30.16,NW,320,3.0,4.0,72,0.00,,,0.00,,2013-03-26 19:03:00,
2013-03-26 15:12:00,33.0,25.0,30.16,NW,320,3.0,4.0,72,0.00,,,0.00,,2013-03-26 19:12:00,
2013-03-26 15:22:00,33.0,25.0,30.16,WNW,292,3.0,9.0,72,0.00,,,0.00,,2013-03-26 19:22:00,
2013-03-26 15:32:00,34.0,26.0,30.16,West,270,2.0,3.0,72,0.00,,,0.00,,2013-03-26 19:32:00,
2013-03-26 15:42:00,34.0,26.0,30.16,West,270,2.0,3.0,72,0.00,,,0.00,,2013-03-26 19:42:00,
2013-03-26 15:53:00,35.0,26.0,30.16,North,-999,-999.0,-999.0,69,0.00,,,0.00,,2013-03-26 19:53:00,
2013-03-26 16:02:00,35.0,26.0,30.16,North,0,7.0,7.0,68,0.00,,,0.00,,2013-03-26 20:02:00,
2013-03-26 16:13:00,35.0,26.0,30.16,North,0,7.0,7.0,68,0.00,,,0.00,,2013-03-26 20:13:00,
2013-03-26 16:22:00,36.0,26.0,30.16,NNW,337,0.0,1.0,68,0.00,,,0.00,,2013-03-26 20:22:00,
2013-03-26 16:32:00,37.0,27.0,30.16,WNW,292,9.0,9.0,68,0.00,,,0.00,,2013-03-26 20:32:00,
2013-03-26 16:42:00,37.0,27.0,30.16,WNW,292,9.0,9.0,68,0.00,,,0.00,,2013-03-26 20:42:00,
2013-03-26 16:51:00,40.0,29.0,30.16,NNW,337,0.0,3.0,65,0.00,,,0.00,,2013-03-26 20:51:00,
2013-03-26 16:52:00,38.0,28.0,30.16,NNW,337,2.0,2.0,66,0.00,,,0.00,,2013-03-26 20:52:00,
2013-03-26 17:02:00,39.0,28.0,30.16,WNW,292,3.0,3.0,65,0.00,,,0.00,,2013-03-26 21:02:00,
2013-03-26 17:12:00,39.0,28.0,30.16,WNW,292,3.0,3.0,65,0.00,,,0.00,,2013-03-26 21:12:00,
2013-03-26 17:22:00,40.0,29.0,30.16,NNW,337,0.0,3.0,65,0.00,,,0.00,,2013-03-26 21:22:00,
2013-03-26 17:33:00,40.0,29.0,30.16,NNW,337,0.0,3.0,65,0.00,,,0.00,,2013-03-26 21:33:00,
2013-03-26 17:43:00,40.0,29.0,30.16,NNW,337,0.0,3.0,65,0.00,,,0.00,,2013-03-26 21:43:00,
2013-03-26 17:51:00,39.0,27.0,30.17,WNW,292,6.0,7.0,63,0.00,,,0.00,,2013-03-26 21:51:00,
2013-03-26 18:23:00,39.0,27.0,30.17,WNW,292,6.0,7.0,63,0.00,,,0.00,,2013-03-26 22:23:00,
2013-03-26 18:33:00,39.0,27.0,30.17,WNW,292,6.0,7.0,63,0.00,,,0.00,,2013-03-26 22:33:00,
2013-03-26 18:42:00,39.0,27.0,30.17,WNW,292,6.0,7.0,63,0.00,,,0.00,,2013-03-26 22:42:00,
2013-03-26 19:22:00,36.0,26.0,30.20,NW,316,4.0,5.0,67,0.00,,,0.00,,2013-03-26 23:22:00,
2013-03-26 19:32:00,36.0,26.0,30.20,NW,315,5.0,7.0,67,0.00,,,0.00,,2013-03-26 23:32:00,
2013-03-26 19:43:00,36.0,26.0,30.20,NW,315,5.0,7.0,67,0.00,,,0.00,,2013-03-26 23:43:00,
2013-03-26 19:53:00,35.0,26.0,30.20,WNW,292,0.0,4.0,68,0.00,,,0.00,,2013-03-26 23:53:00,
2013-03-26 20:02:00,35.0,26.0,30.21,WNW,292,0.0,3.0,69,0.00,,,0.00,,2013-03-27 00:02:00,
2013-03-26 20:12:00,35.0,26.0,30.21,WNW,292,0.0,3.0,69,0.00,,,0.00,,2013-03-27 00:12:00,
2013-03-26 20:22:00,34.0,25.0,30.21,WNW,303,4.0,6.0,70,0.00,,,0.00,,2013-03-27 00:22:00,
2013-03-26 20:32:00,34.0,26.0,30.21,WNW,292,5.0,6.0,71,0.00,,,0.00,,2013-03-27 00:32:00,
2013-03-26 20:42:00,34.0,26.0,30.21,WNW,292,5.0,6.0,71,0.00,,,0.00,,2013-03-27 00:42:00,
2013-03-26 20:52:00,33.0,25.0,30.21,WNW,292,1.0,3.0,73,0.00,,,0.00,,2013-03-27 00:52:00,
2013-03-26 21:02:00,33.0,25.0,30.21,WNW,292,1.0,1.0,73,0.00,,,0.00,,2013-03-27 01:02:00,
2013-03-26 21:12:00,33.0,25.0,30.21,WNW,292,1.0,1.0,73,0.00,,,0.00,,2013-03-27 01:12:00,
2013-03-26 21:23:00,33.0,26.0,30.21,WNW,292,3.0,5.0,74,0.00,,,0.00,,2013-03-27 01:23:00,
2013-03-26 21:33:00,33.0,26.0,30.21,WNW,292,2.0,3.0,75,0.00,,,0.00,,2013-03-27 01:33:00,
2013-03-26 21:42:00,33.0,26.0,30.21,WNW,292,2.0,3.0,75,0.00,,,0.00,,2013-03-27 01:42:00,
2013-03-26 21:53:00,33.0,26.0,30.22,WNW,293,3.0,7.0,76,0.00,,,0.00,,2013-03-27 01:53:00,
2013-03-26 22:03:00,33.0,26.0,30.21,WNW,292,5.0,7.0,76,0.00,,,0.00,,2013-03-27 02:03:00,
2013-03-26 22:12:00,33.0,26.0,30.21,WNW,292,5.0,7.0,76,0.00,,,0.00,,2013-03-27 02:12:00,
2013-03-26 22:22:00,33.0,26.0,30.22,NW,315,1.0,5.0,76,0.00,,,0.00,,2013-03-27 02:22:00,
2013-03-26 22:32:00,33.0,26.0,30.22,WNW,292,2.0,2.0,76,0.00,,,0.00,,2013-03-27 02:32:00,
2013-03-26 22:42:00,33.0,26.0,30.22,WNW,292,2.0,2.0,76,0.00,,,0.00,,2013-03-27 02:42:00,
2013-03-26 22:53:00,33.0,27.0,30.22,WNW,292,0.0,2.0,77,0.00,,,0.00,,2013-03-27 02:53:00,
2013-03-26 23:02:00,33.0,27.0,30.23,WNW,292,3.0,3.0,77,0.00,,,0.00,,2013-03-27 03:02:00,
2013-03-26 23:12:00,33.0,27.0,30.23,WNW,292,3.0,3.0,77,0.00,,,0.00,,2013-03-27 03:12:00,
2013-03-26 23:22:00,33.0,27.0,30.23,WSW,247,1.0,3.0,77,0.00,,,0.00,,2013-03-27 03:22:00,
2013-03-26 23:33:00,33.0,27.0,30.23,NNW,337,2.0,2.0,77,0.00,,,0.00,,2013-03-27 03:33:00,
2013-03-26 23:42:00,33.0,27.0,30.23,NNW,337,2.0,2.0,77,0.00,,,0.00,,2013-03-27 03:42:00,
2013-03-26 23:53:00,33.0,27.0,30.23,NW,315,4.0,4.0,77,0.00,,,0.00,,2013-03-27 03:53:00,